owner,sensor,date,latitude,longitude,vertical_datum,direction_of_sea_water_velocity,sea_water_speed,upward_sea_water_velocity,qcFlag 
TABS,ioos:station:wmo:42043:1,2003-05-01T00:00:00Z,28.9818,-94.9186,2.0,207.9796045,38.94181557,-99999.0,'11111222,11111222,99999999' 
TABS,ioos:station:wmo:42043:1,2003-05-01T00:30:00Z,28.9818,-94.9186,2.0,212.9694123,43.8996697,-99999.0,'11111222,11111222,99999999' 
TABS,ioos:station:wmo:42043:1,2003-05-01T01:00:00Z,28.9818,-94.9186,2.0,217.8704646,47.63126704,-99999.0,'11111222,11111222,99999999' 
TABS,ioos:station:wmo:42043:1,2003-05-01T01:30:00Z,28.9818,-94.9186,2.0,234.1597023,44.72922646,-99999.0,'11111222,11111222,99999999' 
TABS,ioos:station:wmo:42043:1,2003-05-01T02:00:00Z,28.9818,-94.9186,2.0,234.183465,40.89291503,-99999.0,'11111222,11111222,99999999' 
TABS,ioos:station:wmo:42043:1,2003-05-01T02:30:00Z,28.9818,-94.9186,2.0,256.1970652,35.08306999,-99999.0,'11111222,11111222,99999999' 
TABS,ioos:station:wmo:42043:1,2003-05-01T03:00:00Z,28.9818,-94.9186,2.0,276.132492,34.3565787,-99999.0,'11111222,11111222,99999999' 
TABS,ioos:station:wmo:42043:1,2003-05-01T03:30:00Z,28.9818,-94.9186,2.0,277.6787161,29.41372809,-99999.0,'11111222,11111222,99999999' 
TABS,ioos:station:wmo:42043:1,2003-05-01T04:00:00Z,28.9818,-94.9186,2.0,289.1485136,31.24888638,-99999.0,'11111222,11111222,99999999' 
TABS,ioos:station:wmo:42043:1,2003-05-01T04:30:00Z,28.9818,-94.9186,2.0,302.0111521,33.59875295,-99999.0,'11111222,11111222,99999999' 
TABS,ioos:station:wmo:42043:1,2003-05-01T05:00:00Z,28.9818,-94.9186,2.0,296.6405518,34.10006598,-99999.0,'11111222,11111222,99999999' 
TABS,ioos:station:wmo:42043:1,2003-05-01T05:30:00Z,28.9818,-94.9186,2.0,304.2761507,34.99786422,-99999.0,'11111222,11111222,99999999' 
TABS,ioos:station:wmo:42043:1,2003-05-01T06:00:00Z,28.9818,-94.9186,2.0,308.3278788,36.08767795,-99999.0,'11111222,11111222,99999999' 
TABS,ioos:station:wmo:42043:1,2003-05-01T06:30:00Z,28.9818,-94.9186,2.0,310.8998067,32.92940479,-99999.0,'11111222,11111222,99999999' 
TABS,ioos:station:wmo:42043:1,2003-05-01T07:00:00Z,28.9818,-94.9186,2.0,315.8897657,30.97500928,-99999.0,'11111222,11111222,99999999' 
TABS,ioos:station:wmo:42043:1,2003-05-01T07:30:00Z,28.9818,-94.9186,2.0,316.3269809,30.54105761,-99999.0,'11111222,11111222,99999999' 
TABS,ioos:station:wmo:42043:1,2003-05-01T08:00:00Z,28.9818,-94.9186,2.0,317.7604438,28.48702512,-99999.0,'11111222,11111222,99999999' 
TABS,ioos:station:wmo:42043:1,2003-05-01T08:30:00Z,28.9818,-94.9186,2.0,318.0807693,28.94835401,-99999.0,'11111222,11111222,99999999' 
TABS,ioos:station:wmo:42043:1,2003-05-01T09:00:00Z,28.9818,-94.9186,2.0,288.6294662,14.93236083,-99999.0,'11111222,11111222,99999999' 
TABS,ioos:station:wmo:42043:1,2003-05-01T09:30:00Z,28.9818,-94.9186,2.0,276.0300701,11.61425417,-99999.0,'11111222,11111222,99999999' 
TABS,ioos:station:wmo:42043:1,2003-05-01T10:00:00Z,28.9818,-94.9186,2.0,250.1655543,31.8599592,-99999.0,'11111222,11111222,99999999' 
TABS,ioos:station:wmo:42043:1,2003-05-01T10:30:00Z,28.9818,-94.9186,2.0,244.8074665,40.87811273,-99999.0,'11111222,11111222,99999999' 
TABS,ioos:station:wmo:42043:1,2003-05-01T11:00:00Z,28.9818,-94.9186,2.0,244.035648,58.40483713,-99999.0,'11111222,11111222,99999999' 
TABS,ioos:station:wmo:42043:1,2003-05-01T11:30:00Z,28.9818,-94.9186,2.0,240.5155398,58.04761666,-99999.0,'11111222,11111222,99999999' 
TABS,ioos:station:wmo:42043:1,2003-05-01T12:00:00Z,28.9818,-94.9186,2.0,241.3999539,59.4542816,-99999.0,'11111222,11111222,99999999' 
TABS,ioos:station:wmo:42043:1,2003-05-01T12:30:00Z,28.9818,-94.9186,2.0,232.4681432,64.08427264,-99999.0,'11111222,11111222,99999999' 
TABS,ioos:station:wmo:42043:1,2003-05-01T13:00:00Z,28.9818,-94.9186,2.0,232.961241,63.91627649,-99999.0,'11111222,11111222,99999999' 
TABS,ioos:station:wmo:42043:1,2003-05-01T13:30:00Z,28.9818,-94.9186,2.0,234.0348428,61.2816457,-99999.0,'11111222,11111222,99999999' 
TABS,ioos:station:wmo:42043:1,2003-05-01T14:00:00Z,28.9818,-94.9186,2.0,235.5659352,56.41498826,-99999.0,'11111222,11111222,99999999' 
TABS,ioos:station:wmo:42043:1,2003-05-01T14:30:00Z,28.9818,-94.9186,2.0,231.7760333,56.21168918,-99999.0,'11111222,11111222,99999999' 
TABS,ioos:station:wmo:42043:1,2003-05-01T15:00:00Z,28.9818,-94.9186,2.0,230.9346083,59.8379119,-99999.0,'11111222,11111222,99999999' 
TABS,ioos:station:wmo:42043:1,2003-05-01T15:30:00Z,28.9818,-94.9186,2.0,234.7493943,55.61822004,-99999.0,'11111222,11111222,99999999' 
TABS,ioos:station:wmo:42043:1,2003-05-01T16:00:00Z,28.9818,-94.9186,2.0,237.4663117,57.97798548,-99999.0,'11111222,11111222,99999999' 
TABS,ioos:station:wmo:42043:1,2003-05-01T16:30:00Z,28.9818,-94.9186,2.0,241.6386744,59.93370087,-99999.0,'11111222,11111222,99999999' 
TABS,ioos:station:wmo:42043:1,2003-05-01T17:00:00Z,28.9818,-94.9186,2.0,239.3323708,62.64069684,-99999.0,'11111222,11111222,99999999' 
TABS,ioos:station:wmo:42043:1,2003-05-01T17:30:00Z,28.9818,-94.9186,2.0,245.0397096,62.58526744,-99999.0,'11111222,11111222,99999999' 
TABS,ioos:station:wmo:42043:1,2003-05-01T18:00:00Z,28.9818,-94.9186,2.0,240.7829443,56.64658948,-99999.0,'11111222,11111222,99999999' 
TABS,ioos:station:wmo:42043:1,2003-05-01T18:30:00Z,28.9818,-94.9186,2.0,240.4307002,54.53212814,-99999.0,'11111222,11111222,99999999' 
TABS,ioos:station:wmo:42043:1,2003-05-01T19:00:00Z,28.9818,-94.9186,2.0,241.870672,54.89355609,-99999.0,'11111222,11111222,99999999' 
TABS,ioos:station:wmo:42043:1,2003-05-01T19:30:00Z,28.9818,-94.9186,2.0,238.4990796,55.46336178,-99999.0,'11111222,11111222,99999999' 
TABS,ioos:station:wmo:42043:1,2003-05-01T20:00:00Z,28.9818,-94.9186,2.0,236.3123015,58.6123963,-99999.0,'11111222,11111222,99999999' 
TABS,ioos:station:wmo:42043:1,2003-05-01T20:30:00Z,28.9818,-94.9186,2.0,239.216371,60.43468623,-99999.0,'11111222,11111222,99999999' 
TABS,ioos:station:wmo:42043:1,2003-05-01T21:00:00Z,28.9818,-94.9186,2.0,240.2730497,62.19474013,-99999.0,'11111222,11111222,99999999' 
TABS,ioos:station:wmo:42043:1,2003-05-01T21:30:00Z,28.9818,-94.9186,2.0,245.2599821,69.9170766,-99999.0,'11111222,11111222,99999999' 
TABS,ioos:station:wmo:42043:1,2003-05-01T22:00:00Z,28.9818,-94.9186,2.0,245.9835647,74.91531886,-99999.0,'11111222,11111222,99999999' 
TABS,ioos:station:wmo:42043:1,2003-05-01T22:30:00Z,28.9818,-94.9186,2.0,248.8526839,77.05930768,-99999.0,'11111222,11111222,99999999' 
TABS,ioos:station:wmo:42043:1,2003-05-01T23:00:00Z,28.9818,-94.9186,2.0,249.2719671,75.80672068,-99999.0,'11111222,11111222,99999999' 
TABS,ioos:station:wmo:42043:1,2003-05-01T23:30:00Z,28.9818,-94.9186,2.0,252.0892891,78.39931186,-99999.0,'11111222,11111222,99999999' 
TABS,ioos:station:wmo:42043:1,2003-05-02T00:00:00Z,28.9818,-94.9186,2.0,252.4134527,78.77149294,-99999.0,'11111222,11111222,99999999' 
TABS,ioos:station:wmo:42043:1,2003-05-02T00:30:00Z,28.9818,-94.9186,2.0,253.4180488,76.9500104,-99999.0,'11111222,11111222,99999999' 
TABS,ioos:station:wmo:42043:1,2003-05-02T01:00:00Z,28.9818,-94.9186,2.0,255.3263315,76.35008317,-99999.0,'11111222,11111222,99999999' 
TABS,ioos:station:wmo:42043:1,2003-05-02T01:30:00Z,28.9818,-94.9186,2.0,257.5818123,73.33564822,-99999.0,'11111222,11111222,99999999' 
TABS,ioos:station:wmo:42043:1,2003-05-02T02:00:00Z,28.9818,-94.9186,2.0,260.4310117,70.02422509,-99999.0,'11111222,11111222,99999999' 
TABS,ioos:station:wmo:42043:1,2003-05-02T02:30:00Z,28.9818,-94.9186,2.0,263.2164688,64.85395593,-99999.0,'11111222,11111222,99999999' 
TABS,ioos:station:wmo:42043:1,2003-05-02T03:00:00Z,28.9818,-94.9186,2.0,261.7072941,63.44328885,-99999.0,'11111222,11111222,99999999' 
TABS,ioos:station:wmo:42043:1,2003-05-02T03:30:00Z,28.9818,-94.9186,2.0,264.6012572,53.67807839,-99999.0,'11111222,11111222,99999999' 
TABS,ioos:station:wmo:42043:1,2003-05-02T04:00:00Z,28.9818,-94.9186,2.0,269.8017102,46.33027628,-99999.0,'11111222,11111222,99999999' 
TABS,ioos:station:wmo:42043:1,2003-05-02T04:30:00Z,28.9818,-94.9186,2.0,271.8022217,39.11934176,-99999.0,'11111222,11111222,99999999' 
TABS,ioos:station:wmo:42043:1,2003-05-02T05:00:00Z,28.9818,-94.9186,2.0,267.2163404,35.42178426,-99999.0,'11111222,11111222,99999999' 
TABS,ioos:station:wmo:42043:1,2003-05-02T05:30:00Z,28.9818,-94.9186,2.0,267.3204547,28.88156852,-99999.0,'11111222,11111222,99999999' 
TABS,ioos:station:wmo:42043:1,2003-05-02T06:00:00Z,28.9818,-94.9186,2.0,258.0740588,27.19699432,-99999.0,'11111222,11111222,99999999' 
TABS,ioos:station:wmo:42043:1,2003-05-02T06:30:00Z,28.9818,-94.9186,2.0,248.2206244,23.74486471,-99999.0,'11111222,11111222,99999999' 
TABS,ioos:station:wmo:42043:1,2003-05-02T07:00:00Z,28.9818,-94.9186,2.0,235.7802435,25.51729805,-99999.0,'11111222,11111222,99999999' 
TABS,ioos:station:wmo:42043:1,2003-05-02T07:30:00Z,28.9818,-94.9186,2.0,226.3636087,27.33034943,-99999.0,'11111222,11111222,99999999' 
TABS,ioos:station:wmo:42043:1,2003-05-02T08:00:00Z,28.9818,-94.9186,2.0,216.2524653,28.59565876,-99999.0,'11111222,11111222,99999999' 
TABS,ioos:station:wmo:42043:1,2003-05-02T08:30:00Z,28.9818,-94.9186,2.0,216.9182674,37.67401359,-99999.0,'11111222,11111222,99999999' 
TABS,ioos:station:wmo:42043:1,2003-05-02T09:00:00Z,28.9818,-94.9186,2.0,222.0008633,42.7111695,-99999.0,'11111222,11111222,99999999' 
TABS,ioos:station:wmo:42043:1,2003-05-02T09:30:00Z,28.9818,-94.9186,2.0,221.9869039,48.43304657,-99999.0,'11111222,11111222,99999999' 
TABS,ioos:station:wmo:42043:1,2003-05-02T10:00:00Z,28.9818,-94.9186,2.0,219.3043093,50.37547518,-99999.0,'11111222,11111222,99999999' 
TABS,ioos:station:wmo:42043:1,2003-05-02T10:30:00Z,28.9818,-94.9186,2.0,218.251301,52.17116924,-99999.0,'11111222,11111222,99999999' 
TABS,ioos:station:wmo:42043:1,2003-05-02T11:00:00Z,28.9818,-94.9186,2.0,215.8164193,52.99095206,-99999.0,'11111222,11111222,99999999' 
TABS,ioos:station:wmo:42043:1,2003-05-02T11:30:00Z,28.9818,-94.9186,2.0,218.4114182,53.741457,-99999.0,'11111222,11111222,99999999' 
TABS,ioos:station:wmo:42043:1,2003-05-02T12:00:00Z,28.9818,-94.9186,2.0,218.55868,55.91029333,-99999.0,'11111222,11111222,99999999' 
TABS,ioos:station:wmo:42043:1,2003-05-02T12:30:00Z,28.9818,-94.9186,2.0,219.8875888,54.35939385,-99999.0,'11111222,11111222,99999999' 
TABS,ioos:station:wmo:42043:1,2003-05-02T13:00:00Z,28.9818,-94.9186,2.0,218.5362495,50.81749797,-99999.0,'11111222,11111222,99999999' 
TABS,ioos:station:wmo:42043:1,2003-05-02T13:30:00Z,28.9818,-94.9186,2.0,222.3324875,51.51196463,-99999.0,'11111222,11111222,99999999' 
TABS,ioos:station:wmo:42043:1,2003-05-02T14:00:00Z,28.9818,-94.9186,2.0,226.1560771,48.00111353,-99999.0,'11111222,11111222,99999999' 
TABS,ioos:station:wmo:42043:1,2003-05-02T14:30:00Z,28.9818,-94.9186,2.0,228.0360615,45.12018839,-99999.0,'11111222,11111222,99999999' 
TABS,ioos:station:wmo:42043:1,2003-05-02T15:00:00Z,28.9818,-94.9186,2.0,234.4812197,41.55155833,-99999.0,'11111222,11111222,99999999' 
TABS,ioos:station:wmo:42043:1,2003-05-02T15:30:00Z,28.9818,-94.9186,2.0,232.5791764,38.91979702,-99999.0,'11111222,11111222,99999999' 
TABS,ioos:station:wmo:42043:1,2003-05-02T16:00:00Z,28.9818,-94.9186,2.0,232.9082101,40.34230162,-99999.0,'11111222,11111222,99999999' 
TABS,ioos:station:wmo:42043:1,2003-05-02T16:30:00Z,28.9818,-94.9186,2.0,234.0249393,41.60507782,-99999.0,'11111222,11111222,99999999' 
TABS,ioos:station:wmo:42043:1,2003-05-02T17:00:00Z,28.9818,-94.9186,2.0,232.452579,40.61283664,-99999.0,'11111222,11111222,99999999' 
TABS,ioos:station:wmo:42043:1,2003-05-02T17:30:00Z,28.9818,-94.9186,2.0,230.9506364,40.92159332,-99999.0,'11111222,11111222,99999999' 
TABS,ioos:station:wmo:42043:1,2003-05-02T18:00:00Z,28.9818,-94.9186,2.0,229.9606374,43.99127641,-99999.0,'11111222,11111222,99999999' 
TABS,ioos:station:wmo:42043:1,2003-05-02T18:30:00Z,28.9818,-94.9186,2.0,223.0328374,44.91359928,-99999.0,'11111222,11111222,99999999' 
TABS,ioos:station:wmo:42043:1,2003-05-02T19:00:00Z,28.9818,-94.9186,2.0,220.3045329,47.16673616,-99999.0,'11111222,11111222,99999999' 
TABS,ioos:station:wmo:42043:1,2003-05-02T19:30:00Z,28.9818,-94.9186,2.0,216.7399896,46.85811989,-99999.0,'11111222,11111222,99999999' 
TABS,ioos:station:wmo:42043:1,2003-05-02T20:00:00Z,28.9818,-94.9186,2.0,212.0245382,46.86144897,-99999.0,'11111222,11111222,99999999' 
TABS,ioos:station:wmo:42043:1,2003-05-02T20:30:00Z,28.9818,-94.9186,2.0,213.4907898,47.91529192,-99999.0,'11111222,11111222,99999999' 
TABS,ioos:station:wmo:42043:1,2003-05-02T21:00:00Z,28.9818,-94.9186,2.0,209.9185613,51.0653356,-99999.0,'11111222,11111222,99999999' 
TABS,ioos:station:wmo:42043:1,2003-05-02T21:30:00Z,28.9818,-94.9186,2.0,212.5105855,50.94336071,-99999.0,'11111222,11111222,99999999' 
TABS,ioos:station:wmo:42043:1,2003-05-02T22:00:00Z,28.9818,-94.9186,2.0,213.2934132,51.71871035,-99999.0,'11111222,11111222,99999999' 
TABS,ioos:station:wmo:42043:1,2003-05-02T22:30:00Z,28.9818,-94.9186,2.0,216.1341139,53.13037737,-99999.0,'11111222,11111222,99999999' 
TABS,ioos:station:wmo:42043:1,2003-05-02T23:30:00Z,28.9818,-94.9186,2.0,222.8097267,57.91899257,-99999.0,'11111222,11111222,99999999' 
TABS,ioos:station:wmo:42043:1,2003-05-03T00:00:00Z,28.9818,-94.9186,2.0,227.5667189,55.41499887,-99999.0,'11111222,11111222,99999999' 
TABS,ioos:station:wmo:42043:1,2003-05-03T00:30:00Z,28.9818,-94.9186,2.0,231.3071489,54.70767771,-99999.0,'11111222,11111222,99999999' 
TABS,ioos:station:wmo:42043:1,2003-05-03T01:00:00Z,28.9818,-94.9186,2.0,233.419756,56.1127187,-99999.0,'11111222,11111222,99999999' 
TABS,ioos:station:wmo:42043:1,2003-05-03T01:30:00Z,28.9818,-94.9186,2.0,234.5409426,52.29986233,-99999.0,'11111222,11111222,99999999' 
TABS,ioos:station:wmo:42043:1,2003-05-03T02:00:00Z,28.9818,-94.9186,2.0,235.5446201,51.3115679,-99999.0,'11111222,11111222,99999999' 
TABS,ioos:station:wmo:42043:1,2003-05-03T02:30:00Z,28.9818,-94.9186,2.0,235.1036773,50.34187223,-99999.0,'11111222,11111222,99999999' 
TABS,ioos:station:wmo:42043:1,2003-05-03T03:00:00Z,28.9818,-94.9186,2.0,242.9234502,49.62926757,-99999.0,'11111222,11111222,99999999' 
TABS,ioos:station:wmo:42043:1,2003-05-03T03:30:00Z,28.9818,-94.9186,2.0,246.0757794,46.68055055,-99999.0,'11111222,11111222,99999999' 
TABS,ioos:station:wmo:42043:1,2003-05-03T04:00:00Z,28.9818,-94.9186,2.0,244.1860724,47.0553897,-99999.0,'11111222,11111222,99999999' 
TABS,ioos:station:wmo:42043:1,2003-05-03T04:30:00Z,28.9818,-94.9186,2.0,245.085867,43.29931293,-99999.0,'11111222,11111222,99999999' 
TABS,ioos:station:wmo:42043:1,2003-05-03T05:00:00Z,28.9818,-94.9186,2.0,245.4283059,46.53391129,-99999.0,'11111222,11111222,99999999' 
TABS,ioos:station:wmo:42043:1,2003-05-03T05:30:00Z,28.9818,-94.9186,2.0,249.6574067,41.7114145,-99999.0,'11111222,11111222,99999999' 
TABS,ioos:station:wmo:42043:1,2003-05-03T06:00:00Z,28.9818,-94.9186,2.0,253.278056,39.34367548,-99999.0,'11111222,11111222,99999999' 
TABS,ioos:station:wmo:42043:1,2003-05-03T06:30:00Z,28.9818,-94.9186,2.0,253.0996069,40.72893934,-99999.0,'11111222,11111222,99999999' 
TABS,ioos:station:wmo:42043:1,2003-05-03T07:00:00Z,28.9818,-94.9186,2.0,249.0143581,39.37140587,-99999.0,'11111222,11111222,99999999' 
TABS,ioos:station:wmo:42043:1,2003-05-03T07:30:00Z,28.9818,-94.9186,2.0,248.3922823,40.5709502,-99999.0,'11111222,11111222,99999999' 
TABS,ioos:station:wmo:42043:1,2003-05-03T08:00:00Z,28.9818,-94.9186,2.0,245.5484832,39.52480234,-99999.0,'11111222,11111222,99999999' 
TABS,ioos:station:wmo:42043:1,2003-05-03T08:30:00Z,28.9818,-94.9186,2.0,243.6066684,38.71545557,-99999.0,'11111222,11111222,99999999' 
TABS,ioos:station:wmo:42043:1,2003-05-03T09:00:00Z,28.9818,-94.9186,2.0,238.4164469,35.53315353,-99999.0,'11111222,11111222,99999999' 
TABS,ioos:station:wmo:42043:1,2003-05-03T09:30:00Z,28.9818,-94.9186,2.0,236.355337,38.2105352,-99999.0,'11111222,11111222,99999999' 
TABS,ioos:station:wmo:42043:1,2003-05-03T10:00:00Z,28.9818,-94.9186,2.0,234.4027261,37.09115393,-99999.0,'11111222,11111222,99999999' 
TABS,ioos:station:wmo:42043:1,2003-05-03T10:30:00Z,28.9818,-94.9186,2.0,236.7431891,37.38231668,-99999.0,'11111222,11111222,99999999' 
TABS,ioos:station:wmo:42043:1,2003-05-03T11:00:00Z,28.9818,-94.9186,2.0,228.7695293,36.56583104,-99999.0,'11111222,11111222,99999999' 
TABS,ioos:station:wmo:42043:1,2003-05-03T11:30:00Z,28.9818,-94.9186,2.0,227.2744451,38.83662447,-99999.0,'11111222,11111222,99999999' 
TABS,ioos:station:wmo:42043:1,2003-05-03T12:00:00Z,28.9818,-94.9186,2.0,224.0215878,36.86684825,-99999.0,'11111222,11111222,99999999' 
TABS,ioos:station:wmo:42043:1,2003-05-03T12:30:00Z,28.9818,-94.9186,2.0,228.3127129,38.29727014,-99999.0,'11111222,11111222,99999999' 
TABS,ioos:station:wmo:42043:1,2003-05-03T13:00:00Z,28.9818,-94.9186,2.0,226.6539374,41.88524919,-99999.0,'11111222,11111222,99999999' 
TABS,ioos:station:wmo:42043:1,2003-05-03T13:30:00Z,28.9818,-94.9186,2.0,227.0710764,42.84331103,-99999.0,'11111222,11111222,99999999' 
TABS,ioos:station:wmo:42043:1,2003-05-03T14:00:00Z,28.9818,-94.9186,2.0,225.8624197,42.73530742,-99999.0,'11111222,11111222,99999999' 
TABS,ioos:station:wmo:42043:1,2003-05-03T14:30:00Z,28.9818,-94.9186,2.0,224.4196154,42.60536703,-99999.0,'11111222,11111222,99999999' 
TABS,ioos:station:wmo:42043:1,2003-05-03T15:00:00Z,28.9818,-94.9186,2.0,222.5509444,44.85031215,-99999.0,'11111222,11111222,99999999' 
TABS,ioos:station:wmo:42043:1,2003-05-03T15:30:00Z,28.9818,-94.9186,2.0,220.6492618,47.63360683,-99999.0,'11111222,11111222,99999999' 
TABS,ioos:station:wmo:42043:1,2003-05-03T16:00:00Z,28.9818,-94.9186,2.0,225.726101,42.94604638,-99999.0,'11111222,11111222,99999999' 
TABS,ioos:station:wmo:42043:1,2003-05-03T16:30:00Z,28.9818,-94.9186,2.0,226.4815447,42.92866758,-99999.0,'11111222,11111222,99999999' 
TABS,ioos:station:wmo:42043:1,2003-05-03T17:00:00Z,28.9818,-94.9186,2.0,227.2372763,40.93026509,-99999.0,'11111222,11111222,99999999' 
TABS,ioos:station:wmo:42043:1,2003-05-03T17:30:00Z,28.9818,-94.9186,2.0,228.1594558,42.59015144,-99999.0,'11111222,11111222,99999999' 
TABS,ioos:station:wmo:42043:1,2003-05-03T18:00:00Z,28.9818,-94.9186,2.0,234.6487251,39.23378646,-99999.0,'11111222,11111222,99999999' 
TABS,ioos:station:wmo:42043:1,2003-05-03T18:30:00Z,28.9818,-94.9186,2.0,230.7132254,40.84031954,-99999.0,'11111222,11111222,99999999' 
TABS,ioos:station:wmo:42043:1,2003-05-03T19:00:00Z,28.9818,-94.9186,2.0,231.5331481,41.20199631,-99999.0,'11111222,11111222,99999999' 
TABS,ioos:station:wmo:42043:1,2003-05-03T19:30:00Z,28.9818,-94.9186,2.0,234.4284043,41.65269859,-99999.0,'11111222,11111222,99999999' 
TABS,ioos:station:wmo:42043:1,2003-05-03T20:00:00Z,28.9818,-94.9186,2.0,239.2826994,40.21164632,-99999.0,'11111222,11111222,99999999' 
TABS,ioos:station:wmo:42043:1,2003-05-03T20:30:00Z,28.9818,-94.9186,2.0,241.6385578,41.80817743,-99999.0,'11111222,11111222,99999999' 
TABS,ioos:station:wmo:42043:1,2003-05-03T21:00:00Z,28.9818,-94.9186,2.0,240.4761598,42.371822,-99999.0,'11111222,11111222,99999999' 
TABS,ioos:station:wmo:42043:1,2003-05-03T21:30:00Z,28.9818,-94.9186,2.0,242.8847337,44.73683605,-99999.0,'11111222,11111222,99999999' 
TABS,ioos:station:wmo:42043:1,2003-05-03T22:00:00Z,28.9818,-94.9186,2.0,242.5770571,43.92576693,-99999.0,'11111222,11111222,99999999' 
TABS,ioos:station:wmo:42043:1,2003-05-03T22:30:00Z,28.9818,-94.9186,2.0,241.7842438,44.10013719,-99999.0,'11111222,11111222,99999999' 
TABS,ioos:station:wmo:42043:1,2003-05-03T23:00:00Z,28.9818,-94.9186,2.0,242.3994341,47.52867345,-99999.0,'11111222,11111222,99999999' 
TABS,ioos:station:wmo:42043:1,2003-05-03T23:30:00Z,28.9818,-94.9186,2.0,240.884396,49.55114731,-99999.0,'11111222,11111222,99999999' 
TABS,ioos:station:wmo:42043:1,2003-05-04T00:00:00Z,28.9818,-94.9186,2.0,240.4401759,50.59527349,-99999.0,'11111222,11111222,99999999' 
TABS,ioos:station:wmo:42043:1,2003-05-04T00:30:00Z,28.9818,-94.9186,2.0,241.6769466,54.8228757,-99999.0,'11111222,11111222,99999999' 
TABS,ioos:station:wmo:42043:1,2003-05-04T01:00:00Z,28.9818,-94.9186,2.0,244.2370099,58.43865929,-99999.0,'11111222,11111222,99999999' 
TABS,ioos:station:wmo:42043:1,2003-05-04T01:30:00Z,28.9818,-94.9186,2.0,246.1524497,62.05808328,-99999.0,'11111222,11111222,99999999' 
TABS,ioos:station:wmo:42043:1,2003-05-04T02:00:00Z,28.9818,-94.9186,2.0,247.491378,60.81242307,-99999.0,'11111222,11111222,99999999' 
TABS,ioos:station:wmo:42043:1,2003-05-04T02:30:00Z,28.9818,-94.9186,2.0,249.8670351,57.96152948,-99999.0,'11111222,11111222,99999999' 
TABS,ioos:station:wmo:42043:1,2003-05-04T03:00:00Z,28.9818,-94.9186,2.0,250.2984614,60.24661401,-99999.0,'11111222,11111222,99999999' 
TABS,ioos:station:wmo:42043:1,2003-05-04T03:30:00Z,28.9818,-94.9186,2.0,253.7579293,58.17160304,-99999.0,'11111222,11111222,99999999' 
TABS,ioos:station:wmo:42043:1,2003-05-04T04:00:00Z,28.9818,-94.9186,2.0,256.824453,54.71008865,-99999.0,'11111222,11111222,99999999' 
TABS,ioos:station:wmo:42043:1,2003-05-04T04:30:00Z,28.9818,-94.9186,2.0,253.4557905,51.55423164,-99999.0,'11111222,11111222,99999999' 
TABS,ioos:station:wmo:42043:1,2003-05-04T05:00:00Z,28.9818,-94.9186,2.0,256.3597128,48.38458949,-99999.0,'11111222,11111222,99999999' 
TABS,ioos:station:wmo:42043:1,2003-05-04T05:30:00Z,28.9818,-94.9186,2.0,257.369543,49.712946,-99999.0,'11111222,11111222,99999999' 
TABS,ioos:station:wmo:42043:1,2003-05-04T06:00:00Z,28.9818,-94.9186,2.0,266.0467868,49.17698344,-99999.0,'11111222,11111222,99999999' 
TABS,ioos:station:wmo:42043:1,2003-05-04T06:30:00Z,28.9818,-94.9186,2.0,265.6313119,43.32585833,-99999.0,'11111222,11111222,99999999' 
TABS,ioos:station:wmo:42043:1,2003-05-04T07:00:00Z,28.9818,-94.9186,2.0,270.6971147,41.94310074,-99999.0,'11111222,11111222,99999999' 
TABS,ioos:station:wmo:42043:1,2003-05-04T07:30:00Z,28.9818,-94.9186,2.0,270.8126734,40.91411126,-99999.0,'11111222,11111222,99999999' 
TABS,ioos:station:wmo:42043:1,2003-05-04T08:00:00Z,28.9818,-94.9186,2.0,272.416588,38.66437378,-99999.0,'11111222,11111222,99999999' 
TABS,ioos:station:wmo:42043:1,2003-05-04T08:30:00Z,28.9818,-94.9186,2.0,277.0147436,40.45276381,-99999.0,'11111222,11111222,99999999' 
TABS,ioos:station:wmo:42043:1,2003-05-04T09:00:00Z,28.9818,-94.9186,2.0,280.3936486,34.20114764,-99999.0,'11111222,11111222,99999999' 
TABS,ioos:station:wmo:42043:1,2003-05-04T09:30:00Z,28.9818,-94.9186,2.0,278.311247,33.62309474,-99999.0,'11111222,11111222,99999999' 
TABS,ioos:station:wmo:42043:1,2003-05-04T10:00:00Z,28.9818,-94.9186,2.0,279.8200985,27.14773287,-99999.0,'11111222,11111222,99999999' 
TABS,ioos:station:wmo:42043:1,2003-05-04T10:30:00Z,28.9818,-94.9186,2.0,280.9415427,25.28969948,-99999.0,'11111222,11111222,99999999' 
TABS,ioos:station:wmo:42043:1,2003-05-04T11:00:00Z,28.9818,-94.9186,2.0,275.0545738,22.92915175,-99999.0,'11111222,11111222,99999999' 
TABS,ioos:station:wmo:42043:1,2003-05-04T11:30:00Z,28.9818,-94.9186,2.0,269.4649103,20.36088652,-99999.0,'11111222,11111222,99999999' 
TABS,ioos:station:wmo:42043:1,2003-05-04T12:00:00Z,28.9818,-94.9186,2.0,254.0927385,20.4323885,-99999.0,'11111222,11111222,99999999' 
TABS,ioos:station:wmo:42043:1,2003-05-04T12:30:00Z,28.9818,-94.9186,2.0,252.0285308,22.6552996,-99999.0,'11111222,11111222,99999999' 
TABS,ioos:station:wmo:42043:1,2003-05-04T13:00:00Z,28.9818,-94.9186,2.0,239.8864152,19.8720155,-99999.0,'11111222,11111222,99999999' 
TABS,ioos:station:wmo:42043:1,2003-05-04T13:30:00Z,28.9818,-94.9186,2.0,229.4169612,23.41113624,-99999.0,'11111222,11111222,99999999' 
TABS,ioos:station:wmo:42043:1,2003-05-04T14:00:00Z,28.9818,-94.9186,2.0,226.7584657,27.6467575,-99999.0,'11111222,11111222,99999999' 
TABS,ioos:station:wmo:42043:1,2003-05-04T14:30:00Z,28.9818,-94.9186,2.0,216.8375962,32.22400503,-99999.0,'11111222,11111222,99999999' 
TABS,ioos:station:wmo:42043:1,2003-05-04T15:00:00Z,28.9818,-94.9186,2.0,219.1748134,33.86140281,-99999.0,'11111222,11111222,99999999' 
TABS,ioos:station:wmo:42043:1,2003-05-04T15:30:00Z,28.9818,-94.9186,2.0,221.5018011,35.116704,-99999.0,'11111222,11111222,99999999' 
TABS,ioos:station:wmo:42043:1,2003-05-04T16:00:00Z,28.9818,-94.9186,2.0,215.8431531,40.08043163,-99999.0,'11111222,11111222,99999999' 
TABS,ioos:station:wmo:42043:1,2003-05-04T16:30:00Z,28.9818,-94.9186,2.0,215.190405,36.85582722,-99999.0,'11111222,11111222,99999999' 